User: anonymous   Login
Location: Unspecified
(0.0000°N, 0.0000°E)
Time: 06:58:22
(UTC+00:00)
Language:

Explorer 29 - Orbit

View from above orbital plane
View from above orbital plane
View from above satellite
View from above satellite

Ground track
Ground track

The orbit data is extracted from the following two-line orbital elements,

1  1726U 65089A   17202.84808190 -.00000104 +00000-0 -19176-3 0  9998
2  1726 059.3839 139.8544 0711575 254.2670 132.8558 11.97044823260280
Epoch (UTC): 21 July 2017 20:21:14
Eccentricity: 0.0711575
inclination: 59.3839°
perigee height: 1120 km
apogee height: 2268 km
right ascension of ascending node: 139.8544°
argument of perigee: 254.2670°
revolutions per day: 11.97044823
mean anomaly at epoch: 132.8558°
orbit number at epoch: 26028

The dashed part of the orbit path shows where the satellite is in the earth's shadow,  

DLR